Location: Newark
(46.7000°N, 60.6000°W)
Time: 21:04:38
(UTC+00:00)

Envisat - Pass Details

Date: 28 September 2020
Orbit: 764 x 766 km, 98.1° (Epoch: 20 October)

Event Time Altitude Azimuth Distance (km) Brightness Sun altitude
Rises 22:55:20 0° 225° (SW) 3,223 6.8 -12.5°
Reaches altitude 10° 23:00:18 10° 268° (W) 2,306 6.8 -13.3°
Maximum altitude 23:00:54 10° 275° (W) 2,294 6.9 -13.4°
Drops below altitude 10° 23:01:30 10° 282° (WNW) 2,308 7.0 -13.5°
Sets 23:06:30 0° 325° (NW) 3,242 7.0 -14.4°
